Reflectivity
-20 -20 -20 -20 -20 -20 -20 -20 -20 -20 -20 -20 -20 -20 -20 -20 -20 -20 -20 -20 -20 -20 -20 -20 -20 -20 -20 -20 -20 -20 -20 -20 -20
-20 -20 -20 -20 -20 -20 -20 -20 -20 -20 -20 -20 -20 -20 -20 -20 -20 -20 -20 -20 -20 -20 -20 -20 -20 -20 -20 -20 -20 -20 -20 -20 -20
-20 -20 -20 -20 -20 -20 -20 -20 -20 -20 -20 -20 -20 -20 -20 -20 -20 -20 -20 -20 -20 -20 -20 -20 -20 -20 -20 -20 -20 -20 -20 -20 -20
-20 -20 -20 -20 -20 -20 -20 -20 -20 -20 -20 -20 -20 -20 -20 -20 -20 -20 -20 -20 -20 -20 -20 -20 -20 -20 -20 -20 -20 -20 -20 -20 -20
-20 -20 -20 -20 -20 -20 -20 -20 -20 -20 -20 -20 -20 -20 -20 -20 -20 -20 -20 -20 -20 -20 -20 -20 -20 -20 -20 -20 -20 -20 -20 -20 -20
-20 -20 -20 -20 -20 -20 -20 -20 -20 -20 -20 -20 -20 -20 -20 -20 -20 -20 -20 -20 -20 -20 -20 -20 -20 -20 -20 -20 -20 -20 -20 -20 -20
-20 -20 -20 -20 -20 -20 -20 -20 -20 -20 -20 -20 -20 -20 -20 -20 -20 -20 -20 -20 -20 -20 -20 -20 -20 -20 -20 -20 -20 -20 -20 -20 -20
-20 -20 -20 -20 -20 -20 -20 -20 -20 -20 -20 -20 -20 -20 -20 -20 -20 -20 -20 -20 -20 -20 -20 -20 -20 -20 -20 -20 -20 -20 -20 -20 -20
-20 -20 -20 -20 -20 -20 -20 -20 -20 -20 -20 -20 -20 -20 -20 -20 -20 -20 -20 -20 -20 -20 -20 -20 -20 -20 -20 -20 -20 -20 -20 -20 -20
-20 -20 -20 -20 -20 -20 -20 -20 -20 -20 -20 -20 -20 -15 -20 -20 -20 -20 -20 -20 -20 -20 -20 -20 -20 -20 -20 -20 -20 -20 -20 -20 -20
-20 -20 -20 -20 -20 -20 -20 -20 -20 -20 -20 -20 6 -2 -20 -20 -20 -20 -20 -20 -20 -20 -20 -20 -20 -20 -20 -20 -20 -20 -20 -20 -20
-20 -20 -20 -20 -20 -20 -20 -20 -20 -20 -20 -20 -20 -20 -20 -20 -20 -20 -20 -20 -20 -20 -20 -20 -20 -20 -20 -20 -20 -20 -20 -20 -20
-20 -20 -20 -20 -20 -20 -20 -20 -20 -20 -20 -20 -20 -20 -20 -20 -19 -6 -20 -20 -20 -20 -20 -20 -20 -20 -20 -20 -20 -12 -20 -20 -20
-20 -20 -20 -20 -20 -20 -20 -20 -20 -20 -20 -20 -20 -20 -20 -20 -11 -12 -20 16 -2 -13 -15 -20 -20 -20 -20 -20 -20 -19 -20 -20 -20
-20 -20 -20 -20 -20 -20 -20 -20 -20 -20 -20 -20 -20 -20 -20 -20 -20 -20 -20 -20 -0 11 7 -3 -12 2 -6 -20 -20 -6 -10 -20 -20
-20 -20 -20 -20 -20 -20 -20 -20 -20 -20 -20 -20 -20 -20 -20 -20 -20 -18 32 -4 -20 -20 1 -3 -20 -20 16 0 9 -19 -1 -14 -6
-20 -20 -20 -20 -20 -20 -20 -20 -20 -20 -20 -20 -20 -20 -20 -20 -20 28 -3 -20 -4 -16 -17 -20 4 42 26 -1 3 -7 17 18 35
-20 -20 -20 -20 -20 -20 -20 -20 -20 -20 -20 -20 -20 -20 -20 -20 -20 -20 -20 -9 35 29 -11 12 7 10 24 19 36 29 37 36 33
-20 -20 -20 -20 -20 -20 -20 -20 -20 -20 -20 -20 -20 -20 -20 -20 -20 -20 -20 -20 -15 12 7 14 25 26 14 26 44 51 43 42 44
8 -20 -20 -20 -20 -20 -20 -20 -20 -20 -20 -20 -20 -20 -20 -20 -20 -20 -20 -6 -20 -5 30 25 13 34 32 31 24 39 45 43 34
Wind_Speed
21 21 21 23 22 20 21 21 20 19 20 19 19 19 19 17 16 11 11 11 8 8 7 7 8 9 9 8 8 6 6 4 4
15 20 21 24 24 21 20 21 22 23 21 21 20 20 18 17 16 15 13 12 10 9 8 7 8 10 10 9 9 8 8 5 6
17 19 20 22 21 22 21 21 21 20 21 22 21 21 18 16 18 18 15 12 13 12 10 9 9 10 10 9 9 9 9 6 5
18 17 19 21 20 21 22 19 18 21 21 20 20 19 18 18 16 17 15 14 14 13 11 11 11 11 11 11 11 11 9 8 8
11 13 17 19 21 19 18 20 19 20 21 21 22 20 19 20 18 17 17 16 16 13 13 11 12 11 11 11 12 12 12 11 10
8 11 11 12 12 16 19 19 19 19 20 22 19 18 19 19 19 18 18 18 16 13 13 13 12 12 13 12 12 12 12 13 12
10 10 11 11 11 16 17 19 21 19 19 19 17 18 19 20 21 21 20 18 18 14 14 14 14 14 13 13 12 13 13 13 12
8 8 8 10 13 13 13 15 16 17 17 18 19 19 19 21 19 19 17 17 17 15 16 15 15 14 13 13 13 11 13 13 12
11 10 10 10 11 12 14 17 18 18 18 20 20 20 22 19 18 18 18 17 17 15 15 15 14 14 15 14 11 15 16 15 12
13 13 11 10 14 15 15 17 19 20 20 17 20 21 20 19 19 19 19 17 16 18 17 16 16 15 15 15 14 15 19 18 10
15 14 12 11 10 12 14 16 14 11 11 17 19 19 18 18 18 19 17 17 18 18 16 17 16 16 16 14 13 17 19 21 14
15 13 12 11 10 9 10 9 10 13 14 15 15 18 18 18 19 20 19 20 20 17 16 15 15 14 15 17 15 20 21 19 14
13 10 5 7 7 3 3 9 11 14 14 16 18 19 21 20 20 20 21 20 19 16 13 14 12 15 16 20 17 20 22 21 11
2 1 2 4 4 5 4 4 8 12 14 18 21 17 15 16 18 20 20 17 15 13 13 12 14 16 15 15 16 15 21 25 13
6 8 8 8 8 8 7 5 5 5 11 11 3 7 14 16 17 15 15 18 15 16 15 15 15 15 13 12 14 13 16 19 11
7 7 7 7 10 10 8 8 8 5 6 4 4 7 9 11 10 11 12 16 19 16 19 13 11 11 11 11 8 7 22 22 18
7 6 6 4 8 10 9 6 6 5 2 2 2 7 6 7 11 12 13 11 10 12 14 15 19 15 15 11 8 8 7 9 7
6 5 4 5 8 7 5 5 6 5 5 4 2 5 6 7 8 10 10 3 6 11 10 11 7 5 3 4 3 8 12 9 4
11 10 9 11 10 7 4 2 0 2 4 3 3 4 5 8 9 9 8 7 7 11 22 26 24 20 21 14 23 15 15 18 7
9 11 11 9 7 7 8 8 8 8 3 4 6 7 8 7 10 11 13 11 12 12 9 18 26 19 20 22 26 19 14 16 15
Wind_Direction
211 208 209 213 211 202 200 199 194 193 193 198 198 196 198 198 199 199 203 198 194 203 194 196 180 188 196 188 178 183 168 178 182
212 212 210 213 211 206 201 202 196 192 194 200 197 200 197 195 196 199 201 199 195 200 198 194 182 186 194 187 179 184 175 181 191
217 214 211 212 208 209 206 203 198 194 197 197 196 198 197 197 196 196 197 192 198 201 195 192 184 186 189 183 181 183 180 183 181
214 212 211 214 211 208 206 204 193 196 197 195 196 194 195 197 199 199 196 196 202 201 195 189 189 189 185 187 184 186 183 193 184
223 213 211 212 213 204 201 198 200 193 195 195 197 192 194 197 195 194 193 199 202 197 195 189 192 188 186 189 191 186 188 193 192
221 229 227 217 208 198 197 195 198 197 197 202 196 191 194 195 196 192 197 199 202 193 190 189 190 190 189 189 195 188 194 196 195
224 216 220 211 199 204 200 196 193 193 201 200 194 194 195 197 197 195 196 196 197 191 190 186 192 196 191 191 195 196 195 195 197
254 241 216 201 200 198 194 187 193 195 194 191 190 193 200 205 199 198 198 197 195 194 190 194 193 192 195 191 196 200 195 196 196
240 239 218 206 204 190 185 189 190 190 190 193 189 193 201 198 196 196 197 195 192 190 191 192 190 196 195 197 205 199 189 192 194
231 243 245 206 203 196 194 193 192 195 194 187 191 197 199 197 193 196 198 192 190 193 193 183 190 193 194 204 210 186 189 192 189
227 234 242 229 212 208 202 201 196 191 179 186 193 202 198 193 196 198 192 190 196 197 192 191 188 191 195 199 206 189 192 189 197
224 225 229 232 220 217 206 182 183 167 176 188 193 200 198 197 195 195 190 193 197 196 192 192 193 190 188 199 205 185 186 182 197
222 226 229 237 256 259 225 223 165 168 184 186 199 200 203 196 192 194 195 197 196 190 192 191 186 192 197 202 205 187 183 184 191
40 149 265 233 189 212 180 185 175 190 185 196 206 201 198 197 196 196 197 188 185 187 189 186 192 199 199 205 203 196 188 185 187
67 64 43 44 70 46 13 8 160 183 201 220 223 201 196 196 201 195 189 184 184 180 183 191 191 200 209 203 201 201 177 170 169
55 50 54 64 84 79 51 57 63 49 5 345 170 180 196 203 206 211 202 187 183 181 177 188 202 194 210 212 195 157 159 173 172
55 37 36 60 72 62 51 41 70 100 42 32 172 217 206 194 195 193 196 194 199 198 189 189 175 197 208 185 155 158 187 171 158
71 79 78 69 75 79 62 12 18 13 5 10 11 247 196 185 188 190 187 140 196 197 194 197 233 202 96 148 191 167 131 137 170
59 47 36 44 50 73 74 102 35 297 299 323 270 231 200 192 175 172 141 130 76 47 117 98 103 110 114 77 76 330 94 99 197
66 60 53 41 28 12 17 12 10 3 354 292 270 226 196 173 166 158 160 150 142 119 55 106 133 144 124 124 138 163 157 155 169